Weather History for KDET - November, 2011

Change the Weather History Date:

Tuesday, November 1, 2011

  Actual Average Record
Temperature  
Mean Temperature 46 °F -  
Max Temperature 57 °F 57 °F 81 °F (1950)
Min Temperature 35 °F 44 °F 26 °F (1949)
Degree Days  
Heating Degree Days 19    
Moisture  
Dew Point 38 °F    
Average Humidity 73    
Maximum Humidity 97    
Minimum Humidity 47    
Precipitation  
Precipitation 0.00 in - - ()
Sea Level Pressure  
Sea Level Pressure 30.22 in    
Wind  
Wind Speed 4 mph (SSW)    
Max Wind Speed 13 mph    
Max Gust Speed -    
Visibility 8 miles    
Events      
Averages and records for this station are not official NWS values.
T = Trace of Precipitation, MM = Missing Value Source: NWS Daily Summary

Daily Weather History Graph

Daily Weather History Graph

Search for Another Location

Airport or City:

Trip Planner

Search our weather history database for the weather conditions in past years. The results will help you decide how hot, cold, wet, or windy it might be!

Date:

Astronomy

Nov. 01, 2011 Rise Set
Actual Time 8:05 AM EDT 6:25 PM EDT
Civil Twilight 7:35 AM EDT 6:54 PM EDT
Nautical Twilight 7:02 AM EDT 7:27 PM EDT
Astronomical Twilight 6:29 AM EDT 8:00 PM EDT
Moon 1:52 PM EDT (11/1) No Moon Set
Length of Visible Light 11h 18m
Length of Day
10h 20m
Waxing Crescent, 39% of the Moon is Illuminated
Nov 1
Waxing Crescent
Nov 2
First Quarter
Nov 10
Full
Nov 18
Last Quarter
Nov 25
New

Hourly Weather History & Observations

Time (EDT) Temp. Windchill Dew Point Humidity Pressure Visibility Wind Dir Wind Speed Gust Speed Precip Events Conditions
12:53 AM 44.1 °F - 41.0 °F 89% 30.19 in 7.0 mi Calm Calm - N/A   Clear
1:53 AM 41.0 °F - 39.0 °F 93% 30.20 in 5.0 mi Calm Calm - N/A   Clear
2:53 AM 39.9 °F - 37.9 °F 93% 30.21 in 4.0 mi Calm Calm - N/A   Clear
3:53 AM 39.0 °F 36.8 °F 37.0 °F 93% 30.22 in 5.0 mi WSW 3.5 mph - N/A   Clear
4:53 AM 41.0 °F 39.0 °F 37.9 °F 89% 30.23 in 7.0 mi WSW 3.5 mph - N/A   Clear
5:53 AM 37.0 °F - 35.1 °F 93% 30.24 in 7.0 mi Calm Calm - N/A   Clear
6:53 AM 36.0 °F - 35.1 °F 97% 30.25 in 5.0 mi Calm Calm - N/A   Clear
7:53 AM 35.1 °F - 33.1 °F 92% 30.25 in 4.0 mi Calm Calm - N/A   Clear
8:53 AM 37.0 °F - 36.0 °F 96% 30.27 in 3.0 mi Calm Calm - N/A   Clear
9:53 AM 45.0 °F 43.5 °F 41.0 °F 86% 30.28 in 7.0 mi SSW 3.5 mph - N/A   Clear
10:53 AM 48.9 °F - 41.0 °F 74% 30.27 in 9.0 mi SSW 6.9 mph - N/A   Clear
11:53 AM 52.0 °F - 41.0 °F 66% 30.27 in 10.0 mi South 9.2 mph - N/A   Clear
12:53 PM 55.0 °F - 39.9 °F 57% 30.26 in 10.0 mi South 10.4 mph - N/A   Clear
1:53 PM 57.0 °F - 37.0 °F 47% 30.22 in 10.0 mi SSW 12.7 mph - N/A   Clear
2:53 PM 57.0 °F - 37.9 °F 49% 30.20 in 10.0 mi South 12.7 mph - N/A   Clear
3:53 PM 57.0 °F - 39.0 °F 51% 30.20 in 10.0 mi SSW 11.5 mph - N/A   Clear
4:53 PM 57.0 °F - 37.9 °F 49% 30.20 in 10.0 mi SSW 10.4 mph - N/A   Clear
5:53 PM 55.0 °F - 37.0 °F 51% 30.20 in 10.0 mi SSW 8.1 mph - N/A   Clear
6:53 PM 52.0 °F - 37.9 °F 59% 30.21 in 10.0 mi South 4.6 mph - N/A   Clear
7:53 PM 50.0 °F - 39.0 °F 66% 30.21 in 10.0 mi South 4.6 mph - N/A   Clear
8:53 PM 50.0 °F - 39.0 °F 66% 30.21 in 10.0 mi South 6.9 mph - N/A   Clear
9:53 PM 51.1 °F - 39.9 °F 66% 30.20 in 10.0 mi South 9.2 mph - N/A   Clear
10:53 PM 51.1 °F - 39.9 °F 66% 30.21 in 10.0 mi South 9.2 mph - N/A   Clear
11:53 PM 50.0 °F - 39.9 °F 68% 30.19 in 10.0 mi South 8.1 mph - N/A   Clear